Time,TemperatureF,DewpointF,PressureIn,WindDirection,WindDirectionDegrees,WindSpeedMPH,WindSpeedGustMPH,Humidity,HourlyPrecipIn,Conditions,Clouds,dailyrainin,SoftwareType,DateUTC
2013-05-12 00:03:00,-999.0,-99.9,30.06,South,178,2.0,4.0,92,-99.99,,,-99.99,,2013-05-12 04:03:00,
2013-05-12 00:12:00,70.0,68.0,30.05,South,175,5.0,8.0,92,-99.99,,,-99.99,,2013-05-12 04:12:00,
2013-05-12 00:22:00,70.0,68.0,30.05,South,175,5.0,8.0,92,-99.99,,,-99.99,,2013-05-12 04:22:00,
2013-05-12 00:33:00,70.0,68.0,30.06,ESE,115,2.0,6.0,90,-99.99,,,-99.99,,2013-05-12 04:33:00,
2013-05-12 00:43:00,70.0,68.0,30.06,ESE,115,2.0,6.0,90,-99.99,,,-99.99,,2013-05-12 04:43:00,
2013-05-12 00:52:00,71.0,69.0,30.06,SSW,207,1.0,2.0,92,-99.99,,,-99.99,,2013-05-12 04:52:00,
2013-05-12 01:02:00,71.0,69.0,30.06,SSW,207,1.0,2.0,92,-99.99,,,-99.99,,2013-05-12 05:02:00,
2013-05-12 01:12:00,71.0,69.0,30.06,SW,220,1.0,2.0,93,-99.99,,,-99.99,,2013-05-12 05:12:00,
2013-05-12 01:22:00,71.0,69.0,30.06,SW,220,1.0,2.0,93,-99.99,,,-99.99,,2013-05-12 05:22:00,
2013-05-12 01:32:00,71.0,69.0,30.06,WSW,241,1.0,2.0,94,-99.99,,,-99.99,,2013-05-12 05:32:00,
2013-05-12 01:42:00,71.0,69.0,30.05,SSE,157,1.0,3.0,94,-99.99,,,-99.99,,2013-05-12 05:42:00,
2013-05-12 01:52:00,71.0,69.0,30.05,East,94,1.0,3.0,94,-99.99,,,-99.99,,2013-05-12 05:52:00,
2013-05-12 02:02:00,71.0,69.0,30.05,East,94,1.0,3.0,94,-99.99,,,-99.99,,2013-05-12 06:02:00,
2013-05-12 02:11:00,71.0,69.0,30.04,ENE,74,1.0,2.0,94,-99.99,,,-99.99,,2013-05-12 06:11:00,
2013-05-12 02:21:00,71.0,69.0,30.04,ENE,74,1.0,2.0,94,-99.99,,,-99.99,,2013-05-12 06:21:00,
2013-05-12 02:32:00,70.0,69.0,30.03,SSE,156,2.0,4.0,95,-99.99,,,-99.99,,2013-05-12 06:32:00,
2013-05-12 02:42:00,70.0,69.0,30.03,SSW,199,1.0,2.0,95,-99.99,,,-99.99,,2013-05-12 06:42:00,
2013-05-12 02:52:00,71.0,69.0,30.02,SSW,196,1.0,1.0,95,-99.99,,,-99.99,,2013-05-12 06:52:00,
2013-05-12 03:02:00,71.0,69.0,30.02,SSW,196,1.0,1.0,95,-99.99,,,-99.99,,2013-05-12 07:02:00,
2013-05-12 03:11:00,71.0,69.0,30.02,West,269,1.0,2.0,95,-99.99,,,-99.99,,2013-05-12 07:11:00,
2013-05-12 03:22:00,71.0,69.0,30.02,West,269,1.0,2.0,95,-99.99,,,-99.99,,2013-05-12 07:22:00,
2013-05-12 03:32:00,71.0,70.0,30.02,NNW,334,1.0,2.0,95,-99.99,,,-99.99,,2013-05-12 07:32:00,
2013-05-12 03:42:00,71.0,70.0,30.01,West,275,1.0,2.0,96,-99.99,,,-99.99,,2013-05-12 07:42:00,
2013-05-12 03:52:00,71.0,70.0,30.01,WNW,299,1.0,2.0,96,-99.99,,,-99.99,,2013-05-12 07:52:00,
2013-05-12 04:02:00,71.0,70.0,30.01,WNW,299,1.0,2.0,96,-99.99,,,-99.99,,2013-05-12 08:02:00,
2013-05-12 04:11:00,71.0,70.0,30.01,NW,306,2.0,3.0,96,-99.99,,,-99.99,,2013-05-12 08:11:00,
2013-05-12 04:21:00,71.0,70.0,30.01,NW,306,2.0,3.0,96,-99.99,,,-99.99,,2013-05-12 08:21:00,
2013-05-12 04:32:00,71.0,70.0,30.01,NW,306,2.0,3.0,96,-99.99,,,-99.99,,2013-05-12 08:32:00,
2013-05-12 04:42:00,71.0,70.0,30.00,NW,310,2.0,4.0,96,-99.99,,,-99.99,,2013-05-12 08:42:00,
2013-05-12 04:53:00,71.0,70.0,29.99,SSE,152,1.0,2.0,96,-99.99,,,-99.99,,2013-05-12 08:53:00,
2013-05-12 05:01:00,71.0,70.0,29.99,SSE,152,1.0,2.0,96,-99.99,,,-99.99,,2013-05-12 09:01:00,
2013-05-12 05:11:00,71.0,70.0,29.99,SSE,150,1.0,1.0,96,-99.99,,,-99.99,,2013-05-12 09:11:00,
2013-05-12 05:21:00,71.0,70.0,29.99,SSE,150,1.0,1.0,96,-99.99,,,-99.99,,2013-05-12 09:21:00,
2013-05-12 05:33:00,71.0,70.0,29.99,SSE,150,1.0,1.0,96,-99.99,,,-99.99,,2013-05-12 09:33:00,
2013-05-12 05:43:00,70.0,69.0,29.99,South,180,1.0,1.0,96,-99.99,,,-99.99,,2013-05-12 09:43:00,
2013-05-12 05:50:00,70.0,69.0,29.99,South,180,1.0,1.0,96,-99.99,,,-99.99,,2013-05-12 09:50:00,
2013-05-12 05:53:00,70.0,69.0,29.99,South,180,1.0,1.0,96,-99.99,,,-99.99,,2013-05-12 09:53:00,
2013-05-12 06:03:00,70.0,69.0,29.99,South,180,1.0,1.0,96,-99.99,,,-99.99,,2013-05-12 10:03:00,
2013-05-12 06:12:00,70.0,69.0,29.99,South,180,1.0,1.0,96,-99.99,,,-99.99,,2013-05-12 10:12:00,
2013-05-12 06:23:00,70.0,69.0,29.99,South,180,1.0,1.0,96,-99.99,,,-99.99,,2013-05-12 10:23:00,
2013-05-12 06:33:00,70.0,69.0,29.99,South,180,1.0,1.0,96,-99.99,,,-99.99,,2013-05-12 10:33:00,
2013-05-12 06:42:00,70.0,69.0,29.99,South,180,1.0,1.0,96,-99.99,,,-99.99,,2013-05-12 10:42:00,
2013-05-12 07:32:00,73.0,72.0,29.99,SE,142,1.0,3.0,96,-99.99,,,-99.99,,2013-05-12 11:32:00,
2013-05-12 07:42:00,73.0,72.0,29.99,SE,142,1.0,3.0,96,-99.99,,,-99.99,,2013-05-12 11:42:00,
2013-05-12 07:52:00,74.0,73.0,29.99,South,182,2.0,5.0,95,-99.99,,,-99.99,,2013-05-12 11:52:00,
2013-05-12 08:02:00,74.0,73.0,29.99,South,182,2.0,5.0,95,-99.99,,,-99.99,,2013-05-12 12:02:00,
2013-05-12 08:11:00,75.0,73.0,30.00,South,182,2.0,5.0,93,-99.99,,,-99.99,,2013-05-12 12:11:00,
2013-05-12 08:22:00,75.0,73.0,30.00,South,182,2.0,5.0,93,-99.99,,,-99.99,,2013-05-12 12:22:00,
2013-05-12 08:32:00,75.0,73.0,30.00,South,182,2.0,5.0,93,-99.99,,,-99.99,,2013-05-12 12:32:00,
2013-05-12 08:42:00,77.0,74.0,30.01,WSW,252,3.0,6.0,88,-99.99,,,-99.99,,2013-05-12 12:42:00,
2013-05-12 08:52:00,78.0,74.0,30.02,SW,235,3.0,6.0,86,-99.99,,,-99.99,,2013-05-12 12:52:00,
2013-05-12 09:02:00,78.0,74.0,30.02,SW,235,3.0,6.0,86,-99.99,,,-99.99,,2013-05-12 13:02:00,
2013-05-12 09:11:00,79.0,74.0,30.02,SSW,212,2.0,7.0,84,-99.99,,,-99.99,,2013-05-12 13:11:00,
2013-05-12 09:21:00,79.0,74.0,30.02,SSW,212,2.0,7.0,84,-99.99,,,-99.99,,2013-05-12 13:21:00,
2013-05-12 09:32:00,79.0,74.0,30.02,SSW,212,2.0,7.0,84,-99.99,,,-99.99,,2013-05-12 13:32:00,
2013-05-12 09:42:00,80.0,74.0,30.02,SSW,197,2.0,7.0,81,-99.99,,,-99.99,,2013-05-12 13:42:00,
2013-05-12 09:52:00,81.0,73.0,30.02,SSW,193,1.0,5.0,76,-99.99,,,-99.99,,2013-05-12 13:52:00,
2013-05-12 10:02:00,82.0,73.0,30.02,SSW,193,1.0,4.0,73,-99.99,,,-99.99,,2013-05-12 14:02:00,
2013-05-12 10:11:00,82.0,73.0,30.02,SSW,193,1.0,4.0,73,-99.99,,,-99.99,,2013-05-12 14:11:00,
2013-05-12 10:21:00,82.0,73.0,30.02,SSW,193,1.0,4.0,73,-99.99,,,-99.99,,2013-05-12 14:21:00,
2013-05-12 10:32:00,82.0,70.0,30.02,SSW,205,3.0,9.0,66,-99.99,,,-99.99,,2013-05-12 14:32:00,
2013-05-12 10:42:00,82.0,70.0,30.02,SSW,205,3.0,9.0,66,-99.99,,,-99.99,,2013-05-12 14:42:00,
2013-05-12 10:52:00,82.0,71.0,30.02,SW,215,2.0,5.0,67,-99.99,,,-99.99,,2013-05-12 14:52:00,
2013-05-12 11:01:00,82.0,71.0,30.02,SW,215,2.0,5.0,67,-99.99,,,-99.99,,2013-05-12 15:01:00,
2013-05-12 11:11:00,83.0,70.0,30.02,South,183,3.0,10.0,65,-99.99,,,-99.99,,2013-05-12 15:11:00,
2013-05-12 11:21:00,83.0,70.0,30.02,South,183,3.0,10.0,65,-99.99,,,-99.99,,2013-05-12 15:21:00,
2013-05-12 11:34:00,84.0,71.0,30.02,SW,221,3.0,11.0,64,-99.99,,,-99.99,,2013-05-12 15:34:00,
2013-05-12 11:42:00,84.0,71.0,30.02,SW,221,3.0,11.0,64,-99.99,,,-99.99,,2013-05-12 15:42:00,
2013-05-12 11:53:00,84.0,70.0,30.02,SSW,204,4.0,11.0,62,-99.99,,,-99.99,,2013-05-12 15:53:00,
2013-05-12 12:02:00,84.0,70.0,30.02,SSW,204,4.0,11.0,62,-99.99,,,-99.99,,2013-05-12 16:02:00,
2013-05-12 12:13:00,84.0,71.0,30.02,SSW,207,3.0,9.0,64,-99.99,,,-99.99,,2013-05-12 16:13:00,
2013-05-12 12:23:00,84.0,71.0,30.02,SSW,207,3.0,9.0,64,-99.99,,,-99.99,,2013-05-12 16:23:00,
2013-05-12 12:33:00,85.0,70.0,30.02,SSW,213,3.0,8.0,60,-99.99,,,-99.99,,2013-05-12 16:33:00,
2013-05-12 12:42:00,85.0,70.0,30.02,SSW,213,3.0,8.0,60,-99.99,,,-99.99,,2013-05-12 16:42:00,
2013-05-12 12:53:00,84.0,70.0,30.02,South,189,4.0,12.0,61,-99.99,,,-99.99,,2013-05-12 16:53:00,
2013-05-12 13:02:00,84.0,70.0,30.02,South,189,4.0,12.0,61,-99.99,,,-99.99,,2013-05-12 17:02:00,
2013-05-12 13:12:00,84.0,71.0,30.01,South,179,5.0,11.0,64,-99.99,,,-99.99,,2013-05-12 17:12:00,
2013-05-12 13:22:00,84.0,71.0,30.01,South,179,5.0,11.0,64,-99.99,,,-99.99,,2013-05-12 17:22:00,
2013-05-12 13:32:00,82.0,72.0,30.00,SSE,159,10.0,14.0,71,-99.99,,,-99.99,,2013-05-12 17:32:00,
2013-05-12 13:42:00,82.0,72.0,30.00,SSE,159,10.0,14.0,71,-99.99,,,-99.99,,2013-05-12 17:42:00,
2013-05-12 13:53:00,81.0,71.0,29.99,SSE,155,11.0,17.0,70,-99.99,,,-99.99,,2013-05-12 17:53:00,
2013-05-12 14:01:00,81.0,71.0,29.99,SSE,155,11.0,17.0,70,-99.99,,,-99.99,,2013-05-12 18:01:00,
2013-05-12 14:12:00,80.0,70.0,29.99,SSE,159,10.0,14.0,70,-99.99,,,-99.99,,2013-05-12 18:12:00,
2013-05-12 14:22:00,80.0,70.0,29.99,SSE,159,10.0,14.0,70,-99.99,,,-99.99,,2013-05-12 18:22:00,
2013-05-12 14:32:00,82.0,71.0,29.98,SSE,149,11.0,17.0,70,-99.99,,,-99.99,,2013-05-12 18:32:00,
2013-05-12 14:42:00,82.0,71.0,29.98,SSE,149,11.0,17.0,70,-99.99,,,-99.99,,2013-05-12 18:42:00,
2013-05-12 14:52:00,82.0,71.0,29.97,SSE,161,10.0,18.0,68,-99.99,,,-99.99,,2013-05-12 18:52:00,
2013-05-12 15:01:00,82.0,70.0,29.97,SSE,168,11.0,17.0,67,-99.99,,,-99.99,,2013-05-12 19:01:00,
2013-05-12 15:11:00,82.0,70.0,29.97,SSE,168,11.0,17.0,67,-99.99,,,-99.99,,2013-05-12 19:11:00,
2013-05-12 15:22:00,82.0,70.0,29.97,SSE,168,11.0,17.0,67,-99.99,,,-99.99,,2013-05-12 19:22:00,
2013-05-12 15:32:00,81.0,70.0,29.96,SSE,166,11.0,17.0,68,-99.99,,,-99.99,,2013-05-12 19:32:00,
2013-05-12 15:42:00,82.0,71.0,29.96,SSE,165,12.0,19.0,67,-99.99,,,-99.99,,2013-05-12 19:42:00,
2013-05-12 15:52:00,82.0,70.0,29.96,SSE,165,11.0,18.0,67,-99.99,,,-99.99,,2013-05-12 19:52:00,
2013-05-12 16:02:00,82.0,70.0,29.95,SSE,155,13.0,22.0,67,-99.99,,,-99.99,,2013-05-12 20:02:00,
2013-05-12 16:11:00,82.0,70.0,29.95,SSE,155,13.0,22.0,67,-99.99,,,-99.99,,2013-05-12 20:11:00,
2013-05-12 16:22:00,82.0,70.0,29.95,SSE,155,13.0,22.0,67,-99.99,,,-99.99,,2013-05-12 20:22:00,
2013-05-12 16:32:00,83.0,69.0,29.95,South,171,12.0,19.0,63,-99.99,,,-99.99,,2013-05-12 20:32:00,
2013-05-12 16:42:00,83.0,69.0,29.95,South,171,12.0,19.0,63,-99.99,,,-99.99,,2013-05-12 20:42:00,
2013-05-12 16:52:00,82.0,70.0,29.94,South,171,11.0,17.0,65,-99.99,,,-99.99,,2013-05-12 20:52:00,
2013-05-12 17:01:00,82.0,70.0,29.94,South,171,11.0,17.0,65,-99.99,,,-99.99,,2013-05-12 21:01:00,
2013-05-12 17:11:00,83.0,70.0,29.95,SSE,168,12.0,19.0,65,-99.99,,,-99.99,,2013-05-12 21:11:00,
2013-05-12 17:21:00,83.0,70.0,29.95,SSE,168,12.0,19.0,65,-99.99,,,-99.99,,2013-05-12 21:21:00,
2013-05-12 17:33:00,83.0,70.0,29.95,SSE,168,12.0,19.0,65,-99.99,,,-99.99,,2013-05-12 21:33:00,
2013-05-12 17:42:00,81.0,70.0,29.95,South,174,10.0,16.0,69,-99.99,,,-99.99,,2013-05-12 21:42:00,
2013-05-12 17:53:00,81.0,70.0,29.95,South,174,10.0,16.0,69,-99.99,,,-99.99,,2013-05-12 21:53:00,
2013-05-12 18:03:00,80.0,70.0,29.97,WSW,238,8.0,17.0,72,-99.99,,,-99.99,,2013-05-12 22:03:00,
2013-05-12 18:12:00,80.0,70.0,29.97,WSW,238,8.0,17.0,72,-99.99,,,-99.99,,2013-05-12 22:12:00,
2013-05-12 18:23:00,80.0,70.0,29.97,WSW,238,8.0,17.0,72,-99.99,,,-99.99,,2013-05-12 22:23:00,
2013-05-12 18:33:00,80.0,70.0,29.97,WSW,238,8.0,17.0,72,-99.99,,,-99.99,,2013-05-12 22:33:00,
2013-05-12 18:42:00,71.0,69.0,30.00,SSW,203,4.0,6.0,93,-99.99,,,-99.99,,2013-05-12 22:42:00,
2013-05-12 18:52:00,71.0,69.0,30.00,SSW,203,4.0,6.0,93,-99.99,,,-99.99,,2013-05-12 22:52:00,
2013-05-12 19:02:00,70.0,69.0,30.01,South,178,2.0,5.0,95,-99.99,,,-99.99,,2013-05-12 23:02:00,
2013-05-12 19:12:00,71.0,69.0,30.00,SSE,155,3.0,5.0,95,-99.99,,,-99.99,,2013-05-12 23:12:00,
2013-05-12 19:22:00,71.0,69.0,30.00,SSE,155,3.0,5.0,95,-99.99,,,-99.99,,2013-05-12 23:22:00,
2013-05-12 19:32:00,71.0,70.0,30.00,SSW,197,1.0,4.0,95,-99.99,,,-99.99,,2013-05-12 23:32:00,
2013-05-12 19:42:00,71.0,70.0,30.00,SSW,197,1.0,4.0,95,-99.99,,,-99.99,,2013-05-12 23:42:00,
2013-05-12 19:52:00,71.0,69.0,30.00,South,177,3.0,6.0,95,-99.99,,,-99.99,,2013-05-12 23:52:00,
2013-05-12 20:01:00,71.0,69.0,30.00,South,177,3.0,6.0,95,-99.99,,,-99.99,,2013-05-13 00:01:00,
2013-05-12 20:11:00,71.0,69.0,30.00,South,170,3.0,6.0,93,-99.99,,,-99.99,,2013-05-13 00:11:00,
2013-05-12 20:22:00,71.0,69.0,30.00,South,170,3.0,6.0,93,-99.99,,,-99.99,,2013-05-13 00:22:00,
2013-05-12 20:32:00,72.0,70.0,30.01,South,185,2.0,5.0,94,-99.99,,,-99.99,,2013-05-13 00:32:00,
2013-05-12 20:42:00,72.0,70.0,30.01,South,185,2.0,5.0,94,-99.99,,,-99.99,,2013-05-13 00:42:00,
2013-05-12 20:52:00,72.0,70.0,30.01,South,170,4.0,7.0,94,-99.99,,,-99.99,,2013-05-13 00:52:00,
2013-05-12 21:01:00,72.0,70.0,30.01,South,170,4.0,7.0,94,-99.99,,,-99.99,,2013-05-13 01:01:00,
2013-05-12 21:11:00,72.0,70.0,30.02,South,185,5.0,11.0,93,-99.99,,,-99.99,,2013-05-13 01:11:00,
2013-05-12 21:22:00,72.0,70.0,30.02,South,185,5.0,11.0,93,-99.99,,,-99.99,,2013-05-13 01:22:00,
2013-05-12 21:32:00,71.0,70.0,30.03,South,190,1.0,6.0,94,-99.99,,,-99.99,,2013-05-13 01:32:00,
2013-05-12 21:42:00,71.0,70.0,30.03,South,190,1.0,6.0,94,-99.99,,,-99.99,,2013-05-13 01:42:00,
2013-05-12 21:52:00,71.0,70.0,30.03,South,175,2.0,4.0,95,-99.99,,,-99.99,,2013-05-13 01:52:00,
2013-05-12 22:02:00,71.0,70.0,30.03,South,175,2.0,4.0,95,-99.99,,,-99.99,,2013-05-13 02:02:00,
2013-05-12 22:11:00,71.0,69.0,30.03,SSE,167,2.0,5.0,94,-99.99,,,-99.99,,2013-05-13 02:11:00,
2013-05-12 22:21:00,71.0,69.0,30.03,SSE,167,2.0,5.0,94,-99.99,,,-99.99,,2013-05-13 02:21:00,
2013-05-12 22:32:00,71.0,69.0,30.03,SSE,167,2.0,5.0,94,-99.99,,,-99.99,,2013-05-13 02:32:00,
2013-05-12 22:42:00,71.0,69.0,30.03,SSE,168,3.0,4.0,94,-99.99,,,-99.99,,2013-05-13 02:42:00,
2013-05-12 22:52:00,71.0,69.0,30.03,SSE,168,3.0,4.0,94,-99.99,,,-99.99,,2013-05-13 02:52:00,
2013-05-12 23:02:00,71.0,69.0,30.05,South,186,1.0,2.0,94,-99.99,,,-99.99,,2013-05-13 03:02:00,
2013-05-12 23:11:00,71.0,69.0,30.05,South,186,1.0,2.0,94,-99.99,,,-99.99,,2013-05-13 03:11:00,
2013-05-12 23:22:00,71.0,69.0,30.05,South,186,1.0,2.0,94,-99.99,,,-99.99,,2013-05-13 03:22:00,
2013-05-12 23:33:00,71.0,69.0,30.05,South,186,1.0,2.0,94,-99.99,,,-99.99,,2013-05-13 03:33:00,
2013-05-12 23:42:00,71.0,70.0,30.05,SSE,162,1.0,1.0,95,-99.99,,,-99.99,,2013-05-13 03:42:00,
2013-05-12 23:53:00,71.0,70.0,30.05,SSE,162,1.0,1.0,95,-99.99,,,-99.99,,2013-05-13 03:53:00,